This is the latest recevied weather packets stored in our database for station/object N3TJJ-2. If no packets are shown the sender has not sent any weather packets the latest 10 day(s).
| Time | Temp. | Humidity | Pressure | Rain* | Wind** | Luminosity | Snow |
|---|---|---|---|---|---|---|---|
| 1777232106 | 13.33° C | 71% | 1020.4 hPa | 0 mm | - | - | - |
| 1777231748 | 13.33° C | 71% | 1020.4 hPa | 0 mm | - | - | - |
| 1777231393 | 13.89° C | 71% | 1020.5 hPa | 0 mm | - | - | - |
| 1777231031 | 13.89° C | 71% | 1020.4 hPa | 0 mm | - | - | - |
| 1777230678 | 13.89° C | 72% | 1020.4 hPa | 0 mm | - | - | - |
| 1777230306 | 13.89° C | 72% | 1020.4 hPa | 0 mm | - | - | - |
| 1777229949 | 13.33° C | 72% | 1020.6 hPa | 0 mm | - | - | - |
| 1777229590 | 13.33° C | 73% | 1020.6 hPa | 0 mm | - | - | - |
| 1777229244 | 13.33° C | 73% | 1020.6 hPa | 0 mm | - | - | - |
| 1777228869 | 12.78° C | 73% | 1020.6 hPa | 0 mm | - | - | - |
| 1777228507 | 12.78° C | 74% | 1020.7 hPa | 0 mm | - | - | - |
| 1777228152 | 12.78° C | 75% | 1020.7 hPa | 0 mm | - | - | - |
| 1777227791 | 12.78° C | 76% | 1020.6 hPa | 0 mm | - | - | - |
| 1777227437 | 12.78° C | 73% | 1020.7 hPa | 0 mm | - | - | - |
| 1777227069 | 12.78° C | 75% | 1020.8 hPa | 0 mm | - | - | - |
| 1777226706 | 12.78° C | 77% | 1020.8 hPa | 0 mm | - | - | - |
| 1777226346 | 12.22° C | 77% | 1020.7 hPa | 0 mm | - | - | - |
| 1777225988 | 12.22° C | 77% | 1020.7 hPa | 0 mm | - | - | - |
| 1777225630 | 11.67° C | 77% | 1020.8 hPa | 0 mm | - | - | - |
| 1777225268 | 11.67° C | 78% | 1020.8 hPa | 0 mm | - | - | - |
| 1777224913 | 11.67° C | 79% | 1020.8 hPa | 0 mm | - | - | - |
| 1777224567 | 11.11° C | 80% | 1020.9 hPa | 0 mm | - | - | - |
| 1777224209 | 10.56° C | 79% | 1021 hPa | 0 mm | - | - | - |
| 1777223835 | 11.11° C | 79% | 1021 hPa | 0 mm | - | - | - |
| 1777223467 | 10.56° C | 80% | 1020.9 hPa | 0 mm | - | - | - |
* Rain latest hour (hover to see other rain measurements)
** Current wind speed in m/s (hover to see current wind gust speed)